Regional Weather Roundup
Issued by NWS

Home | Current Version | Previous Version | Graphics & Text | Print | Product List | Glossary On
Versions: 1 2 3 4 5 6 7 8 9 10 11 12 13 14 15 16 17 18 19 20 21 22 23 24 25 26 27 28 29 30 31 32 33 34 35 36 37 38 39 40 41 42 43 44 45 46 47 48 49 50
003
ASUS43 KMKX 230711
RWRWI

WISCONSIN REGIONAL WEATHER ROUNDUP
NATIONAL WEATHER SERVICE MILWAUKEE/SULLIVAN WI
200 AM CDT SUN JUL 23 2017

NOTE: "FAIR" INDICATES FEW OR NO CLOUDS BELOW 12,000 FEET WITH NO
SIGNIFICANT WEATHER AND/OR OBSTRUCTIONS TO VISIBILITY.

WIZ001-002-006>008-014>016-023>028-230800-
NORTHWEST WISCONSIN

CITY           SKY/WX    TMP DP  RH WIND       PRES   REMARKS
SUPERIOR ARPT  NOT AVBL
ASHLAND        FOG       59  59 100 CALM      29.82S VSB 1/4
HAYWARD        CLOUDY    59  57  93 CALM      29.82F FOG
SIREN          CLOUDY    64  56  75 W3        29.84S
CUMBERLAND     MOCLDY    63  55  77 CALM      29.84S
RICE LAKE      CLEAR     62  58  87 CALM      29.84S
CHETEK         CLEAR     62  60  91 CALM      29.83R
LADYSMITH      CLEAR     63  62  96 CALM      29.83F
EAU CLAIRE     FOG       65  65 100 W3        29.81R VSB<1/4
MENOMONIE      CLEAR     66  63  88 W5        29.83S
NEW RICHMOND   CLEAR     63  61  95 CALM      29.84S
OSCEOLA        MOCLDY    63  63 100 CALM      29.86S
$$

WIZ003>005-009-010-017-018-230800-
NORTH CENTRAL WISCONSIN

CITY           SKY/WX    TMP DP  RH WIND       PRES   REMARKS
MANITOWISH WTR CLOUDY    62  62 100 CALM      29.82S
ARBOR VITAE    CLEAR     62  61  96 CALM      29.81F
WOODRUFF       CLEAR     62  61  96 CALM      29.81F
RHINELANDER    FOG       59  59 100 CALM      29.81F VSB 3/4
EAGLE RIVER    PTCLDY    64  64 100 CALM      29.81S
LAND O LAKES   FOG       63  63 100 CALM      29.82F VSB 3/4
PHILLIPS       FOG       58  58 100 CALM      29.81F VSB 1/4
TOMAHAWK       FOG       59  58  97 CALM      29.82F VSB 3/4
MEDFORD        CLEAR     62  62  97 CALM      29.83S
MERRILL        CLEAR     65  65  99 W3        29.82S
$$

WIZ029-030-035-036-043>047-230800-
CENTRAL WISCONSIN

CITY           SKY/WX    TMP DP  RH WIND       PRES   REMARKS
WAUSAU         CLEAR     68  65  90 NW7       29.80R
MOSINEE        CLEAR     68  68 100 NW5       29.82S
MARSHFIELD     CLEAR     67  63  87 NW6       29.82R
STEVENS POINT  CLEAR     69  68  98 W6        29.81S
WAUPACA        CLEAR     72  70  95 W5        29.78F
WAUTOMA        PTCLDY    71  70  96 W7        29.81R
WISC RAPIDS    CLEAR     68  66  93 NW3       29.82S
CAMP DOUGLAS   CLEAR     64  64 100 W3        29.82R
$$

WIZ011>013-019>022-031-037>040-048>050-230800-
NORTHEAST WISCONSIN

CITY           SKY/WX    TMP DP  RH WIND       PRES   REMARKS
ANTIGO         PTCLDY    63  63 100 CALM      29.81S
SHAWANO        FOG       69  67  94 CALM      29.77S VSB 3/4
OCONTO         MOCLDY    63  62  99 CALM      29.76F
STURGEON BAY     N/A     66  65  96 SW8       29.76
GREEN BAY      PTCLDY    68  68 100 SW3       29.77F
MANITOWOC      TSTM      67  65  93 S8        29.81S
APPLETON       PTCLDY    70  68  94 CALM      29.77F
CLINTONVILLE   FOG       70  68  94 N3        29.78S VSB 1/2
OSHKOSH        CLOUDY    73  71  93 W5        29.77S
$$

WIZ032>034-041-042-053>061-230800-
SOUTHWEST WISCONSIN

CITY           SKY/WX    TMP DP  RH WIND       PRES   REMARKS
LA CROSSE      PTCLDY    71  69  93 S7        29.82F
SPARTA         FOG       63  63 100 CALM      29.85R VSB 1/2
VIROQUA        PTCLDY    66  66 100 NW5       29.85F
BOSCOBEL       CLEAR     69  67  93 CALM      29.82S FOG
PRAIRIE DU CHI CLEAR     71  67  88 NW3       29.82F
PLATTEVILLE    CLEAR     72  72 100 CALM      29.83F
$$

WIZ056-057-062-063-064-067-068-230800-
SOUTH CENTRAL WISCONSIN

CITY           SKY/WX    TMP DP  RH WIND       PRES   REMARKS
REEDSBURG      CLOUDY    70  70 100 W3        29.81F
BARABOO/DELLS  CLOUDY    71  68  92 W3        29.81F
LONE ROCK      PTCLDY    71  69  93 W5        29.81F
MINERAL POINT  CLEAR     72  72 100 CALM      29.83F
MADISON        PTCLDY    72  70  93 CALM      29.80F
MIDDLETON      PTCLDY    68  68 100 CALM      29.82F
WATERTOWN      PTCLDY    67  67 100 CALM      29.80S
MONROE         PTCLDY    73  72  94 NW3       29.82F
JANESVILLE     PTCLDY    70  70 100 CALM      29.81S
$$

WIZ051-052-058>065-066-070>072-230800-
SOUTHEAST WISCONSIN

CITY           SKY/WX    TMP DP  RH WIND       PRES   REMARKS
MILWAUKEE      PTCLDY    72  70  93 CALM      29.79S
WAUKESHA       PTCLDY    68  68 100 CALM      29.81F
MILWAUKEE/TIMM CLOUDY    70  64  83 CALM      29.80F
RACINE         CLEAR     71  70  96 SW3       29.81S FOG
KENOSHA        PTCLDY    69  68  96 CALM      29.80R FOG
FOND DU LAC    MOCLDY    73  68  84 SW6       29.79R
SHEBOYGAN      LGT RAIN  67  67 100 E7        29.80S
WEST BEND      MOCLDY    68  68 100 S3        29.79F
JUNEAU         CLOUDY    69  68  95 CALM      29.81F
$$

LSZ147-162-230800-
LAKE SUPERIOR

STATION/POSITION TIME  TEMP    WIND        PRES    WAVE
                       AIR SEA DIR/SP/G            HT/PER
                 (UTC) (F)     (DEG/KT/KT) (MB)    (FT/S)
W MID LAKE BUOY  0650   49 48  360/ 10/ 12 1009.7F   2/ 4
DEVILS ISLAND    0600   55      40/  6/  8 1010.2F
PORT WING        0511   57      50/  7/ 10 1010.8
SAXON HARBOR     0640   59     250/  2/  3 1009.1F
$$

LMZ867-665-643>646-230800-
LAKE MICHIGAN

STATION/POSITION TIME  TEMP    WIND        PRES    WAVE
                       AIR SEA DIR/SP/G            HT/PER
                 (UTC) (F)     (DEG/KT/KT) (MB)    (FT/S)
CHAMBERS ISLAND  0640   69     170/  3/  6 1007.1F
S GREEN BAY BUOY 0700   68 73  140/  8/ 10 1007.4
N MID LAKE BUOY  0650   69 68   90/  2/  4 1008.0F   0
NORTHPORT PIER   0640   67     200/  3/  8 1007.8S
KEWAUNEE LAKESHO 0648          280/  2/  3 1007.5F
SHEBOYGAN LAKESH 0700   67     110/  8/  8 1008.9R
PORT WASHINGTON  0640   70     240/  2/  6 1009.5F
ATWATER BUOY     0539   70     220/  2/  4 1009.0F
MILWAUKEE LAKESH 0650   72     190/  5/  5   N/A
S MID LAKE BUOY  0650   70 70  300/  2/  2 1009.3R   0
KENOSHA   LAKESH 0700   72     260/  3/  4 1008.5
$$

TC  - TEMPERATURE IN CELSIUS
VSB - VISIBILITY IN STATUTE MILES
WCI - WIND CHILL INDEX
HX  - HEAT INDEX





USA.gov is the U.S. government's official web portal to all federal, state and local government web resources and services.